Location: Bonaustraße
(48.4603°N, 11.9280°E)
Time: 21:39:56
(UTC+02:00)

AO-92 - Pass Details

Date: 06 August 2021
Orbit: 484 x 494 km, 97.4° (Epoch: 17 September)

Event Time Altitude Azimuth Distance (km) Brightness Sun altitude
Exits shadow 00:26:59 10° 264° (W) 1,643 ? -23.8°
Maximum altitude 00:27:28 11° 272° (W) 1,631 ? -23.9°
Drops below altitude 10° 00:28:18 10° 285° (WNW) 1,673 ? -23.9°
Sets 00:32:01 0° 326° (NW) 2,564 ? -24.0°
